Tracking 19170 objects as of 23-May-2018
HD Live streaming from Space Station
objects crossing your sky now

NOAA 16 DEB

Track NOAA 16 DEB now!
10-day predictions


NORAD ID: 41669
Int'l Code: 2000-055PJ
Perigee: 815.5 km
Apogee: 865.1 km
Inclination: 98.8 °
Period: 101.6 minutes
Semi major axis: 7211 km
RCS: Unknown
Launch date: September 21, 2000
Source: United States (US)
Launch site: AIR FORCE WESTERN TEST RANGE (AFWTR)

Note: This is SATELLITE DEBRIS
aabbcc
Your satellite tracking list
Your tracking list is empty




NASA's NSSDC Master Catalog

Two Line Element Set (TLE):
1 41669U 00055PJ  18143.05175780  .00000879  00000-0  45062-3 0  9990
2 41669  98.7999 217.0239 0034401  94.3238 266.1869 14.17698971109140
Source of the keplerian elements: AFSPC